This is the latest recevied weather packets stored in our database for station/object OK2ZI. If no packets are shown the sender has not sent any weather packets the latest 10 day(s).
| Time | Temp. | Humidity | Pressure | Rain* | Wind** | Luminosity | Snow |
|---|---|---|---|---|---|---|---|
| 1778158820 | 18.33° C | 44% | 1009 hPa | 0 mm | - | - | - |
| 1778157485 | 19.44° C | 44% | 1009 hPa | 0 mm | - | - | - |
| 1778155811 | 19.44° C | 43% | 1009 hPa | 0 mm | - | - | - |
| 1778155222 | 20° C | 42% | 1009 hPa | 0 mm | - | - | - |
| 1778154016 | 20.56° C | 41% | 1009 hPa | 0 mm | - | - | - |
| 1778153416 | 20° C | 42% | 1009 hPa | 0 mm | - | - | - |
| 1778151967 | 20° C | 43% | 1009 hPa | 0 mm | - | - | - |
| 1778151487 | 20.56° C | 42% | 1009 hPa | 0 mm | - | - | - |
| 1778150527 | 20.56° C | 44% | 1009 hPa | 0 mm | - | - | - |
| 1778149927 | 18.89° C | 45% | 1009 hPa | 0 mm | - | - | - |
| 1778149086 | 19.44° C | 49% | 1009 hPa | 0 mm | - | - | - |
| 1778148247 | 19.44° C | 47% | 1009 hPa | 0 mm | - | - | - |
| 1778147046 | 18.33° C | 50% | 1009 hPa | 0 mm | - | - | - |
| 1778146327 | 18.89° C | 48% | 1009 hPa | 0 mm | - | - | - |
| 1778146086 | 18.33° C | 49% | 1009 hPa | 0 mm | - | - | - |
| 1778145616 | 17.78° C | 54% | 1009 hPa | 0 mm | - | - | - |
| 1778145487 | 17.22° C | 56% | 1009 hPa | 0 mm | - | - | - |
| 1778145245 | 17.78° C | 54% | 1009 hPa | 0 mm | - | - | - |
| 1778144175 | 16.67° C | 60% | 1009 hPa | 0 mm | - | - | - |
| 1778143329 | 16.67° C | 61% | 1009 hPa | 0 mm | - | - | - |
| 1778143015 | 16.11° C | 62% | 1009 hPa | 0 mm | - | - | - |
| 1778142730 | 15.56° C | 65% | 1009 hPa | 0 mm | - | - | - |
| 1778142390 | 15.56° C | 64% | 1009 hPa | 0 mm | - | - | - |
| 1778141185 | 15° C | 66% | 1009 hPa | 0 mm | - | - | - |
| 1778139967 | 14.44° C | 70% | 1009 hPa | 0 mm | - | - | - |
* Rain latest hour (hover to see other rain measurements)
** Current wind speed in m/s (hover to see current wind gust speed)